Weather History for Cheyenne, WY

Change the Weather History Date:

Saturday, November 3, 2012

  Actual Average Record
Temperature  
Mean Temperature 43 °F 41 °F  
Max Temperature 58 °F 52 °F 70 °F (1949)
Min Temperature 27 °F 29 °F -1 °F (1967)
Degree Days  
Heating Degree Days 22 24  
Month to date heating degree days 57 72  
Since 1 July heating degree days 859 931  
Cooling Degree Days 0 0  
Month to date cooling degree days 0 0  
Year to date cooling degree days 568 348  
Moisture  
Dew Point 20 °F    
Average Humidity 47    
Maximum Humidity 78    
Minimum Humidity 15    
Precipitation  
Precipitation 0.00 in 0.02 in 0.74 in (2014)
Month to date precipitation 0.00 0.06  
Year to date precipitation 9.56 14.92  
Snow  
Snow 0.00 in 0.20 in 5.50 in (1992)
Month to date snowfall 0.0 0.6  
Since 1 July snowfall 10.2 6.9  
Snow Depth 0.00 in    
Sea Level Pressure  
Sea Level Pressure 30.14 in    
Wind  
Wind Speed 7 mph (WNW)    
Max Wind Speed 18 mph    
Max Gust Speed 29 mph    
Visibility 10 miles    
Events      
T = Trace of Precipitation, MM = Missing Value Source: NWS Daily Summary

Daily Weather History Graph

Daily Weather History Graph

Search for Another Location

Airport:

Trip Planner

Search our weather history database for the weather conditions in past years. The results will help you decide how hot, cold, wet, or windy it might be!

Date:

Astronomy

Nov. 03, 2012 Rise Set
Actual Time 7:33 AM MDT 5:51 PM MDT
Civil Twilight 7:04 AM MDT 6:20 PM MDT
Nautical Twilight 6:31 AM MDT 6:53 PM MDT
Astronomical Twilight 5:59 AM MDT 7:25 PM MDT
Moon 9:34 PM MDT (11/3) 11:40 AM MDT (11/3)
Length of Visible Light 11h 15m
Length of Day
10h 18m
Waning Gibbous, 80% of the Moon is Illuminated
Nov 3
Waning Gibbous
Nov 6
Last Quarter
Nov 13
New
Nov 20
First Quarter
Nov 28
Full

Hourly Weather History & Observations

Time (MDT) Temp. Windchill Dew Point Humidity Pressure Visibility Wind Dir Wind Speed Gust Speed Precip Events Conditions
12:53 AM 33.1 °F - 24.1 °F 70% 30.13 in 10.0 mi Calm Calm - N/A   Clear
1:53 AM 30.0 °F 24.1 °F 21.9 °F 72% 30.14 in 10.0 mi West 5.8 mph - N/A   Clear
2:53 AM 30.0 °F - 21.9 °F 72% 30.13 in 10.0 mi Calm Calm - N/A   Clear
3:53 AM 28.0 °F 21.7 °F 23.0 °F 81% 30.13 in 10.0 mi WNW 5.8 mph - N/A   Clear
4:53 AM 28.9 °F 23.9 °F 21.9 °F 75% 30.14 in 10.0 mi WNW 4.6 mph - N/A   Clear
5:53 AM 28.0 °F 18.6 °F 23.0 °F 81% 30.17 in 10.0 mi West 10.4 mph - N/A   Clear
6:53 AM 28.9 °F 20.4 °F 21.9 °F 75% 30.18 in 10.0 mi WNW 9.2 mph - N/A   Clear
7:53 AM 28.0 °F 22.8 °F 21.0 °F 75% 30.20 in 10.0 mi West 4.6 mph - N/A   Clear
8:53 AM 37.0 °F 32.4 °F 23.0 °F 57% 30.16 in 10.0 mi WNW 5.8 mph - N/A   Clear
9:53 AM 45.0 °F 42.6 °F 27.0 °F 49% 30.13 in 10.0 mi West 4.6 mph - 0.00 in   Clear
10:53 AM 50.0 °F - 21.9 °F 33% 30.13 in 10.0 mi WNW 3.5 mph - 0.00 in   Clear
11:53 AM 53.1 °F - 21.0 °F 29% 30.12 in 10.0 mi NNE 5.8 mph - N/A   Clear
12:53 PM 55.0 °F - 21.9 °F 28% 30.10 in 10.0 mi West 6.9 mph - N/A   Clear
1:53 PM 55.9 °F - 14.0 °F 19% 30.09 in 10.0 mi WNW 13.8 mph 21.9 mph N/A   Clear
2:53 PM 55.0 °F - 9.0 °F 16% 30.09 in 10.0 mi West 15.0 mph - N/A   Clear
3:53 PM 55.9 °F - 9.0 °F 15% 30.10 in 10.0 mi NW 11.5 mph - N/A   Clear
4:53 PM 54.0 °F - 12.0 °F 19% 30.10 in 10.0 mi NNW 10.4 mph - N/A   Clear
5:53 PM 50.0 °F - 15.1 °F 25% 30.14 in 10.0 mi North 4.6 mph - N/A   Clear
6:53 PM 45.0 °F 41.2 °F 17.1 °F 33% 30.18 in 10.0 mi WSW 6.9 mph - N/A   Clear
7:53 PM 42.1 °F - 24.1 °F 49% 30.22 in 10.0 mi Calm Calm - N/A   Clear
8:53 PM 37.0 °F 33.3 °F 23.0 °F 57% 30.21 in 10.0 mi West 4.6 mph - N/A   Clear
9:53 PM 37.0 °F 31.0 °F 19.9 °F 50% 30.17 in 10.0 mi West 8.1 mph - N/A   Clear
10:53 PM 33.1 °F 25.5 °F 19.9 °F 59% 30.14 in 10.0 mi West 9.2 mph - N/A   Clear
11:53 PM 35.1 °F - 19.9 °F 54% 30.12 in 10.0 mi Calm Calm - N/A   Clear